| time (UTC) | temp F | wind direction | speed knots | gust knots | rain 1hr in | rain 24hr in | rain mn in | humidity % | barometer mb |
| 20260505023107 | 46 | 290 | 0.0 | 2.6 | 0.00 | 0.00 | 0.00 | 84 | 1013.4 |
| 20260505021559 | 45 | 0 | 0.0 | 2.6 | 0.00 | 0.00 | 0.00 | 88 | 1013.4 |
| 20260505020100 | 45 | 0 | 0.0 | 0.9 | 0.00 | 0.00 | 0.00 | 89 | 1013.4 |
| 20260505014559 | 45 | 0 | 0.0 | 0.0 | 0.00 | 0.00 | 0.00 | 89 | 1013.5 |
| 20260505013059 | 45 | 0 | 0.0 | 0.9 | 0.00 | 0.00 | 0.00 | 89 | 1013.6 |
| 20260505011601 | 44 | 0 | 0.0 | 0.0 | 0.00 | 0.00 | 0.00 | 88 | 1013.6 |
| 20260505004601 | 45 | 162 | 0.9 | 1.7 | 0.00 | 0.00 | 0.00 | 87 | 1013.9 |
| 20260505003102 | 45 | 139 | 0.9 | 1.7 | 0.00 | 0.00 | 0.00 | 87 | 1013.9 |
| 20260505001559 | 45 | 0 | 0.0 | 1.7 | 0.00 | 0.00 | 0.00 | 88 | 1014.2 |
| 20260504234624 | 45 | 86 | 0.0 | 1.7 | 0.00 | 0.00 | 0.00 | 86 | 1013.9 |
| 20260504233100 | 46 | 0 | 0.0 | 0.9 | 0.00 | 0.00 | 0.00 | 84 | 1013.9 |
| 20260504231605 | 46 | 109 | 0.0 | 0.9 | 0.00 | 0.00 | 0.00 | 83 | 1014.1 |
| 20260504230101 | 46 | 0 | 0.0 | 0.9 | 0.00 | 0.00 | 0.00 | 82 | 1013.9 |
| 20260504224609 | 46 | 0 | 0.0 | 2.6 | 0.00 | 0.00 | 0.00 | 82 | 1014.1 |
| 20260504223100 | 47 | 123 | 0.0 | 0.9 | 0.00 | 0.00 | 0.00 | 80 | 1014.0 |
| 20260504221605 | 48 | 127 | 0.0 | 2.6 | 0.00 | 0.00 | 0.00 | 79 | 1014.1 |
| 20260504220100 | 49 | 0 | 0.0 | 1.7 | 0.00 | 0.00 | 0.00 | 75 | 1014.3 |
| 20260504214602 | 49 | 21 | 0.9 | 1.7 | 0.00 | 0.00 | 0.00 | 75 | 1014.2 |
| 20260504213105 | 50 | 0 | 0.0 | 2.6 | 0.00 | 0.00 | 0.00 | 76 | 1014.3 |
| 20260504211605 | 50 | 355 | 0.9 | 6.1 | 0.00 | 0.00 | 0.00 | 76 | 1014.5 |
| 20260504210105 | 50 | 344 | 0.9 | 3.5 | 0.00 | 0.00 | 0.00 | 76 | 1014.6 |
| 20260504204638 | 51 | 304 | 0.0 | 0.9 | 0.00 | 0.00 | 0.00 | 74 | 1014.2 |
| 20260504203102 | 51 | 0 | 0.0 | 3.5 | 0.00 | 0.00 | 0.00 | 73 | 1014.1 |
| 20260504201602 | 52 | 262 | 1.7 | 6.1 | 0.00 | 0.00 | 0.00 | 71 | 1013.7 |
| 20260504194603 | 53 | 0 | 0.0 | 2.6 | 0.00 | 0.00 | 0.00 | 69 | 1013.4 |
| 20260504193100 | 53 | 40 | 0.9 | 3.5 | 0.00 | 0.00 | 0.00 | 69 | 1013.2 |
| 20260504191559 | 54 | 27 | 0.9 | 4.3 | 0.00 | 0.00 | 0.00 | 68 | 1013.1 |
| 20260504184605 | 54 | 330 | 2.6 | 7.0 | 0.00 | 0.00 | 0.00 | 65 | 1012.8 |
| 20260504183101 | 55 | 340 | 4.3 | 9.6 | 0.00 | 0.00 | 0.00 | 64 | 1012.8 |
| 20260504181559 | 55 | 319 | 6.1 | 10.4 | 0.00 | 0.00 | 0.00 | 63 | 1012.6 |
| 20260504180058 | 56 | 334 | 5.2 | 8.7 | 0.00 | 0.00 | 0.00 | 62 | 1012.5 |
| 20260504174557 | 56 | 288 | 6.1 | 12.2 | 0.00 | 0.00 | 0.00 | 61 | 1012.5 |
| 20260504173058 | 57 | 338 | 7.8 | 14.8 | 0.00 | 0.00 | 0.00 | 60 | 1012.4 |
| 20260504171558 | 57 | 312 | 8.7 | 17.4 | 0.00 | 0.00 | 0.00 | 60 | 1012.4 |
| 20260504150106 | 57 | 50 | 2.6 | 10.4 | 0.00 | 0.00 | 0.00 | 62 | 1011.9 |
| 20260504081559 | 53 | 236 | 3.5 | 7.8 | 0.00 | 0.40 | 0.00 | 79 | 1013.3 |
| 20260504070106 | 51 | 0 | 0.9 | 2.6 | 0.00 | 0.40 | 0.00 | 83 | 1013.2 |
| 20260504050107 | 48 | 0 | 0.0 | 0.9 | 0.00 | 0.40 | 0.00 | 92 | 1012.9 |
| 20260504044604 | 48 | 0 | 0.0 | 0.9 | 0.00 | 0.40 | 0.00 | 92 | 1013.0 |
| 20260504043100 | 48 | 0 | 0.0 | 1.7 | 0.00 | 0.40 | 0.00 | 92 | 1012.9 |
| 20260504041559 | 48 | 56 | 0.0 | 0.0 | 0.00 | 0.40 | 0.00 | 92 | 1013.1 |
| 20260504040058 | 48 | 0 | 0.0 | 0.9 | 0.00 | 0.40 | 0.00 | 92 | 1013.0 |
| 20260504034614 | 48 | 64 | 0.0 | 2.6 | 0.00 | 0.40 | 0.00 | 92 | 1013.2 |
| 20260504033100 | 48 | 0 | 0.0 | 1.7 | 0.00 | 0.40 | 0.00 | 93 | 1013.5 |
| 20260504031602 | 47 | 0 | 0.0 | 2.6 | 0.00 | 0.39 | 0.00 | 92 | 1013.2 |
| 20260504030056 | 47 | 0 | 0.9 | 2.6 | 0.00 | 0.39 | 0.00 | 92 | 1013.2 |
| 20260504024559 | 47 | 0 | 0.9 | 1.7 | 0.00 | 0.39 | 0.00 | 92 | 1013.5 |